When you browse on this site, cookies collect data to enhance your experience and personalize the content and advertising you see.
Visit our Privacy Policy to learn more. By continuing to use the site, you agree to this use of cookies and data.
  • In Hungary
  • List of Countries
  • For 7 days
  • Water Temperature
  • Weather Map
  • News
  • Weather Widgets
  • user-avatar
    Login

    Hourly Weather Klyuch Bedeevo

    Today, 22 February, Saturday

    Time Temperature Precipitation Wind Pressure Humidity
    00:00 -1°C° 0.3 mm 1 mps 750 mmHg 97%
    01:00 -1°C° 0.3 mm 1 mps 750 mmHg 98%
    02:00 -1°C° 0.1 mm 1 mps 750 mmHg 98%
    03:00 -2°C° 0.1 mm 1 mps 751 mmHg 97%
    04:00 -1°C° 0 mm 1 mps 751 mmHg 99%
    05:00 -2°C° 0.1 mm 1 mps 751 mmHg 98%
    06:00 -2°C° 0.1 mm 1 mps 751 mmHg 98%
    07:00 -2°C° 0.1 mm 1 mps 751 mmHg 97%
    08:00 -1°C° 0 mm 1 mps 752 mmHg 96%
    09:00 -1°C° 0 mm 1 mps 752 mmHg 95%
    10:00 0°C° 0 mm 1 mps 753 mmHg 95%
    11:00 0°C° 0 mm 1 mps 753 mmHg 95%
    12:00 0°C° 0 mm 1 mps 753 mmHg 95%
    13:00 0°C° 0 mm 1 mps 753 mmHg 96%
    14:00 0°C° 0 mm 1 mps 753 mmHg 94%
    15:00 0°C° 0 mm 1 mps 753 mmHg 93%
    16:00 0°C° 0 mm 1 mps 753 mmHg 91%
    17:00 0°C° 0.1 mm 1 mps 753 mmHg 93%
    18:00 -3°C° 0.1 mm 2 mps 753 mmHg 95%
    19:00 -4°C° 0.1 mm 2 mps 753 mmHg 97%
    20:00 -4°C° 0.2 mm 2 mps 754 mmHg 97%
    21:00 -4°C° 0.2 mm 2 mps 754 mmHg 97%
    22:00 -4°C° 0.2 mm 2 mps 754 mmHg 97%
    23:00 -4°C° 0.3 mm 2 mps 754 mmHg 97%

    Tomorrow, 23 February, Sunday

    Time Temperature Precipitation Wind Pressure Humidity
    00:00 -4°C° 0.3 mm 2 mps 753 mmHg 97%
    01:00 -5°C° 0.3 mm 2 mps 753 mmHg 97%
    02:00 -5°C° 0.2 mm 2 mps 753 mmHg 97%
    03:00 -5°C° 0.2 mm 2 mps 753 mmHg 97%
    04:00 -6°C° 0.2 mm 2 mps 753 mmHg 97%
    05:00 -6°C° 0.1 mm 2 mps 753 mmHg 97%
    06:00 -6°C° 0.1 mm 2 mps 752 mmHg 97%
    07:00 -6°C° 0.1 mm 2 mps 752 mmHg 97%
    08:00 -7°C° 0 mm 3 mps 752 mmHg 96%
    09:00 -6°C° 0 mm 3 mps 751 mmHg 96%
    10:00 -6°C° 0 mm 3 mps 751 mmHg 96%
    11:00 -5°C° 0 mm 4 mps 751 mmHg 94%
    12:00 -5°C° 0 mm 4 mps 750 mmHg 93%
    13:00 -4°C° 0 mm 4 mps 749 mmHg 91%
    14:00 -4°C° 0 mm 4 mps 749 mmHg 90%
    15:00 -4°C° 0 mm 4 mps 748 mmHg 90%
    16:00 -4°C° 0 mm 4 mps 748 mmHg 89%
    17:00 -5°C° 0 mm 4 mps 747 mmHg 90%
    18:00 -7°C° 0 mm 4 mps 747 mmHg 91%
    19:00 -8°C° 0 mm 4 mps 746 mmHg 92%
    20:00 -8°C° 0 mm 4 mps 746 mmHg 92%
    21:00 -8°C° 0 mm 4 mps 745 mmHg 92%
    22:00 -8°C° 0 mm 5 mps 745 mmHg 91%
    23:00 -8°C° 0.1 mm 5 mps 744 mmHg 91%

    Day after tomorrow, 24 February, Monday

    Time Temperature Precipitation Wind Pressure Humidity
    00:00 -9°C° 0.1 mm 6 mps 743 mmHg 92%
    01:00 -9°C° 0.1 mm 7 mps 743 mmHg 92%
    02:00 -9°C° 0.2 mm 6 mps 742 mmHg 92%
    03:00 -9°C° 0.2 mm 6 mps 741 mmHg 92%
    04:00 -9°C° 0.2 mm 6 mps 741 mmHg 92%
    05:00 -9°C° 0.5 mm 6 mps 740 mmHg 92%
    06:00 -9°C° 0.5 mm 6 mps 739 mmHg 93%
    07:00 -9°C° 0.5 mm 7 mps 739 mmHg 94%
    08:00 -8°C° 0.3 mm 7 mps 738 mmHg 94%
    09:00 -7°C° 0.3 mm 7 mps 738 mmHg 94%
    10:00 -6°C° 0.3 mm 7 mps 737 mmHg 94%
    11:00 -6°C° 0.6 mm 7 mps 736 mmHg 95%
    12:00 -4°C° 0.6 mm 7 mps 736 mmHg 95%
    13:00 -3°C° 0.6 mm 7 mps 735 mmHg 95%
    14:00 -4°C° 0.7 mm 8 mps 735 mmHg 94%
    15:00 -4°C° 0.7 mm 8 mps 735 mmHg 94%
    16:00 -5°C° 0.7 mm 8 mps 734 mmHg 94%
    17:00 -4°C° 0.6 mm 8 mps 735 mmHg 94%
    18:00 -3°C° 0.6 mm 7 mps 735 mmHg 95%
    19:00 -3°C° 0.6 mm 6 mps 735 mmHg 96%
    20:00 -3°C° 0.2 mm 6 mps 736 mmHg 95%
    21:00 -4°C° 0.2 mm 5 mps 736 mmHg 94%
    22:00 -4°C° 0.2 mm 5 mps 737 mmHg 94%
    23:00 -3°C° 0.1 mm 4 mps 737 mmHg 94%

    25 February, Tuesday

    Time Temperature Precipitation Wind Pressure Humidity
    00:00 -4°C° 0.1 mm 4 mps 737 mmHg 95%
    01:00 -4°C° 0.1 mm 3 mps 737 mmHg 96%
    02:00 -4°C° 0.1 mm 3 mps 738 mmHg 96%
    03:00 -4°C° 0.1 mm 3 mps 738 mmHg 96%
    04:00 -2°C° 0.1 mm 3 mps 738 mmHg 96%
    05:00 -4°C° 0.1 mm 3 mps 738 mmHg 96%
    06:00 -4°C° 0.1 mm 3 mps 738 mmHg 96%
    07:00 -4°C° 0.1 mm 3 mps 738 mmHg 96%
    08:00 -2°C° 0.1 mm 3 mps 737 mmHg 96%
    09:00 -3°C° 0.1 mm 4 mps 737 mmHg 96%
    10:00 -2°C° 0.1 mm 4 mps 737 mmHg 96%
    11:00 -2°C° 0.2 mm 4 mps 737 mmHg 97%
    12:00 -2°C° 0.2 mm 4 mps 737 mmHg 98%
    13:00 -2°C° 0.2 mm 4 mps 737 mmHg 99%
    14:00 -2°C° 0 mm 4 mps 736 mmHg 99%
    15:00 -2°C° 0 mm 4 mps 736 mmHg 99%
    16:00 -2°C° 0 mm 4 mps 736 mmHg 98%
    17:00 -1°C° 0 mm 3 mps 736 mmHg 97%
    18:00 -1°C° 0 mm 3 mps 735 mmHg 96%
    19:00 -1°C° 0 mm 2 mps 735 mmHg 95%
    20:00 -1°C° 0 mm 2 mps 735 mmHg 93%
    21:00 -1°C° 0 mm 2 mps 734 mmHg 91%
    22:00 -1°C° 0 mm 3 mps 734 mmHg 89%
    23:00 -1°C° 0.2 mm 3 mps 733 mmHg 92%

    26 February, Wednesday

    Time Temperature Precipitation Wind Pressure Humidity
    00:00 -1°C° 0.2 mm 3 mps 733 mmHg 95%
    01:00 -1°C° 0.2 mm 3 mps 732 mmHg 98%
    02:00 -1°C° 0.7 mm 2 mps 732 mmHg 98%
    03:00 -1°C° 0.7 mm 2 mps 731 mmHg 98%
    04:00 +1°C° 0.7 mm 1 mps 731 mmHg 99%
    05:00 +1°C° 0.5 mm 1 mps 731 mmHg 99%
    06:00 +1°C° 0.5 mm 1 mps 730 mmHg 99%
    07:00 0°C° 0.5 mm 0 mps 730 mmHg 99%
    08:00 0°C° 0.3 mm 0 mps 730 mmHg 99%
    09:00 +1°C° 0.3 mm 1 mps 730 mmHg 99%
    10:00 +2°C° 0.3 mm 1 mps 730 mmHg 99%
    11:00 +1°C° 0.1 mm 2 mps 731 mmHg 99%
    12:00 0°C° 0.1 mm 3 mps 731 mmHg 99%
    13:00 0°C° 0.1 mm 3 mps 731 mmHg 99%
    14:00 -2°C° 0.1 mm 4 mps 732 mmHg 97%
    15:00 -2°C° 0.1 mm 5 mps 732 mmHg 95%
    16:00 -4°C° 0.1 mm 6 mps 733 mmHg 92%
    17:00 -5°C° 0 mm 6 mps 734 mmHg 91%
    18:00 -5°C° 0 mm 5 mps 735 mmHg 90%
    19:00 -6°C° 0 mm 5 mps 735 mmHg 88%
    20:00 -8°C° 0 mm 4 mps 736 mmHg 90%
    21:00 -10°C° 0 mm 3 mps 737 mmHg 92%
    22:00 -12°C° 0 mm 2 mps 738 mmHg 93%
    23:00 -13°C° 0 mm 2 mps 738 mmHg 93%

    27 February, Thursday

    Time Temperature Precipitation Wind Pressure Humidity
    00:00 -11°C° 0 mm 1 mps 738 mmHg 93%
    01:00 -12°C° 0 mm 1 mps 739 mmHg 93%
    02:00 -12°C° 0 mm 1 mps 739 mmHg 93%
    03:00 -14°C° 0 mm 2 mps 739 mmHg 93%
    04:00 -14°C° 0 mm 2 mps 740 mmHg 93%
    05:00 -15°C° 0 mm 3 mps 739 mmHg 93%
    06:00 -15°C° 0 mm 3 mps 739 mmHg 92%
    07:00 -14°C° 0 mm 3 mps 739 mmHg 91%
    08:00 -12°C° 0.2 mm 4 mps 739 mmHg 93%
    09:00 -11°C° 0.2 mm 4 mps 739 mmHg 94%
    10:00 -9°C° 0.2 mm 4 mps 740 mmHg 95%
    11:00 -7°C° 0.3 mm 5 mps 740 mmHg 96%
    12:00 -5°C° 0.3 mm 5 mps 740 mmHg 98%
    13:00 -4°C° 0.3 mm 5 mps 741 mmHg 99%
    14:00 -2°C° 0.6 mm 5 mps 741 mmHg 99%
    15:00 -2°C° 0.6 mm 5 mps 741 mmHg 99%
    16:00 -1°C° 0.6 mm 4 mps 742 mmHg 98%
    17:00 -1°C° 0.2 mm 4 mps 742 mmHg 98%
    18:00 -1°C° 0.2 mm 4 mps 742 mmHg 98%
    19:00 0°C° 0.2 mm 3 mps 743 mmHg 98%
    20:00 -1°C° 0.3 mm 4 mps 743 mmHg 98%
    21:00 -2°C° 0.3 mm 4 mps 744 mmHg 98%
    22:00 -2°C° 0.3 mm 4 mps 744 mmHg 98%
    23:00 -2°C° 0.1 mm 4 mps 744 mmHg 96%
    Show more